• In Latvia
  • List of Countries
  • For 7 days
  • Water Temperature
  • Satellite Maps
  • Weather Map
  • Weather Widgets
  • user-avatar
    Login

    Hourly Weather Nemteni

    Today, 25 June, Monday

    Time Temperature Precipitation Wind Pressure Humidity
    00:00 +15°C° 0 mm 1 mps 758 mmHg 60%
    01:00 +14°C° 0 mm 1 mps 758 mmHg 62%
    02:00 +14°C° 0 mm 1 mps 758 mmHg 65%
    03:00 +14°C° 0 mm 1 mps 758 mmHg 67%
    04:00 +14°C° 0 mm 1 mps 758 mmHg 68%
    05:00 +13°C° 0 mm 1 mps 759 mmHg 70%
    06:00 +16°C° 0 mm 1 mps 759 mmHg 65%
    07:00 +19°C° 0 mm 1 mps 759 mmHg 59%
    08:00 +21°C° 0 mm 1 mps 759 mmHg 54%
    09:00 +21°C° 0 mm 2 mps 759 mmHg 50%
    10:00 +24°C° 0 mm 2 mps 759 mmHg 46%
    11:00 +25°C° 0 mm 2 mps 759 mmHg 42%
    12:00 +25°C° 0 mm 2 mps 759 mmHg 42%
    13:00 +25°C° 0 mm 3 mps 759 mmHg 42%
    14:00 +26°C° 0 mm 3 mps 759 mmHg 42%
    15:00 +26°C° 0 mm 3 mps 759 mmHg 42%
    16:00 +25°C° 0 mm 3 mps 759 mmHg 43%
    17:00 +25°C° 0 mm 3 mps 758 mmHg 43%
    18:00 +24°C° 0 mm 2 mps 758 mmHg 48%
    19:00 +21°C° 0 mm 2 mps 758 mmHg 53%
    20:00 +20°C° 0 mm 2 mps 758 mmHg 58%
    21:00 +20°C° 0 mm 1 mps 759 mmHg 59%
    22:00 +19°C° 0 mm 1 mps 759 mmHg 60%
    23:00 +18°C° 0 mm 1 mps 759 mmHg 61%

    Tomorrow, 26 June, Tuesday

    Time Temperature Precipitation Wind Pressure Humidity
    00:00 +18°C° 0 mm 1 mps 759 mmHg 62%
    01:00 +16°C° 0 mm 1 mps 759 mmHg 62%
    02:00 +16°C° 0 mm 1 mps 759 mmHg 63%
    03:00 +16°C° 0 mm 1 mps 759 mmHg 65%
    04:00 +15°C° 0 mm 1 mps 759 mmHg 66%
    05:00 +15°C° 0 mm 1 mps 759 mmHg 67%
    06:00 +17°C° 0 mm 2 mps 759 mmHg 64%
    07:00 +19°C° 0 mm 3 mps 759 mmHg 60%
    08:00 +22°C° 0 mm 3 mps 759 mmHg 56%
    09:00 +23°C° 0 mm 4 mps 759 mmHg 52%
    10:00 +25°C° 0 mm 4 mps 758 mmHg 47%
    11:00 +27°C° 0 mm 4 mps 758 mmHg 43%
    12:00 +27°C° 0 mm 4 mps 758 mmHg 42%
    13:00 +27°C° 0 mm 4 mps 758 mmHg 41%
    14:00 +28°C° 0 mm 3 mps 757 mmHg 39%
    15:00 +28°C° 0 mm 3 mps 757 mmHg 40%
    16:00 +28°C° 0 mm 3 mps 757 mmHg 40%
    17:00 +28°C° 0 mm 3 mps 756 mmHg 41%
    18:00 +26°C° 0 mm 3 mps 756 mmHg 48%
    19:00 +24°C° 0 mm 3 mps 756 mmHg 54%
    20:00 +21°C° 0 mm 3 mps 756 mmHg 61%
    21:00 +20°C° 0 mm 3 mps 756 mmHg 65%
    22:00 +20°C° 0 mm 3 mps 756 mmHg 69%
    23:00 +19°C° 0 mm 4 mps 756 mmHg 72%

    Day after tomorrow, 27 June, Wednesday

    Time Temperature Precipitation Wind Pressure Humidity
    00:00 +18°C° 0 mm 3 mps 756 mmHg 75%
    01:00 +18°C° 0 mm 3 mps 756 mmHg 77%
    02:00 +17°C° 0 mm 3 mps 756 mmHg 79%
    03:00 +17°C° 0 mm 4 mps 756 mmHg 82%
    04:00 +17°C° 0 mm 4 mps 755 mmHg 84%
    05:00 +17°C° 0 mm 4 mps 755 mmHg 86%
    06:00 +17°C° 0 mm 5 mps 755 mmHg 83%
    07:00 +20°C° 0 mm 5 mps 755 mmHg 80%
    08:00 +21°C° 0 mm 5 mps 754 mmHg 77%
    09:00 +23°C° 0.2 mm 6 mps 754 mmHg 74%
    10:00 +24°C° 0.2 mm 7 mps 754 mmHg 70%
    11:00 +26°C° 0.2 mm 7 mps 753 mmHg 67%
    12:00 +27°C° 0.7 mm 7 mps 753 mmHg 66%
    13:00 +28°C° 0.7 mm 7 mps 752 mmHg 65%
    14:00 +29°C° 0.7 mm 7 mps 751 mmHg 63%
    15:00 +29°C° 3.6 mm 7 mps 751 mmHg 66%
    16:00 +28°C° 3.6 mm 6 mps 750 mmHg 69%
    17:00 +28°C° 3.6 mm 6 mps 750 mmHg 71%
    18:00 +27°C° 2.8 mm 5 mps 750 mmHg 75%
    19:00 +26°C° 2.8 mm 4 mps 750 mmHg 79%
    20:00 +25°C° 2.8 mm 3 mps 750 mmHg 83%
    21:00 +24°C° 0.2 mm 2 mps 750 mmHg 86%
    22:00 +23°C° 0.2 mm 2 mps 750 mmHg 89%
    23:00 +22°C° 0.2 mm 1 mps 750 mmHg 92%

    28 June, Thursday

    Time Temperature Precipitation Wind Pressure Humidity
    00:00 +22°C° 0 mm 1 mps 750 mmHg 92%
    01:00 +22°C° 0 mm 1 mps 751 mmHg 93%
    02:00 +21°C° 0 mm 1 mps 751 mmHg 94%
    03:00 +21°C° 0 mm 1 mps 751 mmHg 94%
    04:00 +21°C° 0 mm 1 mps 751 mmHg 95%
    05:00 +21°C° 0 mm 1 mps 751 mmHg 95%
    06:00 +22°C° 0.6 mm 1 mps 751 mmHg 91%
    07:00 +23°C° 0.6 mm 2 mps 751 mmHg 88%
    08:00 +25°C° 0.6 mm 2 mps 752 mmHg 84%
    09:00 +25°C° 0.7 mm 2 mps 752 mmHg 81%
    10:00 +26°C° 0.7 mm 3 mps 752 mmHg 77%
    11:00 +26°C° 0.7 mm 3 mps 752 mmHg 73%
    12:00 +26°C° 0.8 mm 3 mps 752 mmHg 75%
    13:00 +26°C° 0.8 mm 3 mps 752 mmHg 77%
    14:00 +25°C° 0.8 mm 3 mps 752 mmHg 79%
    15:00 +25°C° 2.7 mm 3 mps 751 mmHg 82%
    16:00 +23°C° 2.7 mm 4 mps 751 mmHg 85%
    17:00 +22°C° 2.7 mm 4 mps 751 mmHg 89%
    18:00 +22°C° 1.8 mm 3 mps 751 mmHg 89%
    19:00 +22°C° 1.8 mm 3 mps 751 mmHg 90%
    20:00 +22°C° 1.8 mm 3 mps 751 mmHg 90%
    21:00 +21°C° 0.7 mm 3 mps 750 mmHg 90%
    22:00 +21°C° 0.7 mm 3 mps 750 mmHg 91%
    23:00 +21°C° 0.7 mm 3 mps 750 mmHg 91%

    29 June, Friday

    Time Temperature Precipitation Wind Pressure Humidity
    00:00 +21°C° 0.6 mm 3 mps 750 mmHg 92%
    01:00 +20°C° 0.6 mm 2 mps 750 mmHg 93%
    02:00 +20°C° 0.6 mm 2 mps 750 mmHg 93%
    03:00 +20°C° 0.3 mm 2 mps 749 mmHg 93%
    04:00 +20°C° 0.3 mm 2 mps 749 mmHg 93%
    05:00 +20°C° 0.3 mm 2 mps 749 mmHg 93%
    06:00 +23°C° 0.1 mm 2 mps 749 mmHg 88%
    07:00 +24°C° 0.1 mm 3 mps 749 mmHg 84%
    08:00 +26°C° 0.1 mm 3 mps 749 mmHg 79%
    09:00 +27°C° 0 mm 3 mps 749 mmHg 75%
    10:00 +28°C° 0 mm 3 mps 748 mmHg 71%
    11:00 +29°C° 0 mm 4 mps 748 mmHg 67%
    12:00 +30°C° 0.1 mm 3 mps 748 mmHg 64%
    13:00 +31°C° 0.1 mm 3 mps 748 mmHg 60%
    14:00 +31°C° 0.1 mm 3 mps 747 mmHg 57%
    15:00 +31°C° 1.2 mm 3 mps 747 mmHg 59%
    16:00 +30°C° 1.2 mm 4 mps 747 mmHg 62%
    17:00 +30°C° 1.2 mm 4 mps 747 mmHg 64%
    18:00 +28°C° 0.6 mm 4 mps 747 mmHg 70%
    19:00 +26°C° 0.6 mm 3 mps 747 mmHg 76%
    20:00 +25°C° 0.6 mm 2 mps 747 mmHg 82%
    21:00 +24°C° 0 mm 2 mps 747 mmHg 84%
    22:00 +23°C° 0 mm 2 mps 747 mmHg 86%
    23:00 +22°C° 0 mm 1 mps 747 mmHg 88%

    30 June, Saturday

    Time Temperature Precipitation Wind Pressure Humidity
    00:00 +22°C° 0.1 mm 1 mps 747 mmHg 89%
    01:00 +21°C° 0.1 mm 1 mps 747 mmHg 90%
    02:00 +19°C° 0.1 mm 0 mps 747 mmHg 91%
    03:00 +21°C° 0.1 mm 1 mps 747 mmHg 92%
    04:00 +21°C° 0.1 mm 1 mps 747 mmHg 92%
    05:00 +21°C° 0.1 mm 1 mps 747 mmHg 93%
    06:00 +21°C° 0 mm 2 mps 747 mmHg 89%
    07:00 +22°C° 0 mm 3 mps 748 mmHg 86%
    08:00 +25°C° 0 mm 3 mps 748 mmHg 82%
    09:00 +26°C° 0.4 mm 3 mps 748 mmHg 77%
    10:00 +27°C° 0.4 mm 3 mps 748 mmHg 72%
    11:00 +28°C° 0.4 mm 3 mps 748 mmHg 67%
    12:00 +29°C° 0.2 mm 4 mps 748 mmHg 64%
    13:00 +29°C° 0.2 mm 5 mps 748 mmHg 62%
    14:00 +29°C° 0.2 mm 6 mps 748 mmHg 59%
    15:00 +28°C° 0.4 mm 7 mps 748 mmHg 64%
    16:00 +27°C° 0.4 mm 8 mps 749 mmHg 69%
    17:00 +26°C° 0.4 mm 8 mps 749 mmHg 74%
    18:00 +23°C° 0.1 mm 8 mps 750 mmHg 75%
    19:00 +22°C° 0.1 mm 7 mps 751 mmHg 77%
    20:00 +20°C° 0.1 mm 6 mps 751 mmHg 79%
    21:00 +20°C° 0 mm 6 mps 752 mmHg 77%
    22:00 +19°C° 0 mm 6 mps 753 mmHg 75%
    23:00 +17°C° 0 mm 6 mps 753 mmHg 72%
    Show more